星链-31494 (STARLINK-31494 )

导读

STARLINK-31494是美国太空探索技术公司(SpaceX)星链(Starlink)卫星互联网项目中的一颗卫星,于2024年3月16日发射升空。它属于星链星座组网卫星,旨在为全球提供高速低延迟互联网服务,尤其覆盖偏远地区,是SpaceX推进大规模低轨卫星星座部署的组成部分。

基本信息
目录编号:
59238
目录名称:
STARLINK-31494
国际标识:
2024-049H
轨道中心:
EARTH
卫星名称:
星链-31494
卫星全名:
星链-31494 (STARLINK-31494 )
卫星状态:
在轨 (已飞行909 天)
发射日期:
2024-03-16 UTC
国别 :
美国 (US)
星等 :
--
该卫星已列入 空间交会检测服务 Space Conjunction Data Service (SCDS) ,当前飞行风险评估等级: 无高风险
轨道信息
数据来源 国际轨道数据 AOE轨道数据
星历时间 2026-09-11T11:46:16+0800
13小时前
查看轨道信息
2026-09-11T00:00:00+0800
1天前
查看轨道信息
半长轴 6861.208km 6861.241km
偏心率 0.0000762 0.000107
轨道倾角 43.001° 43.001°
近地点辐角 276.764° 318.767°
升交点赤经 175.882° 178.656°
平近点角 83.313° 220.923°
近地点 482.548km 482.369km
远地点 483.594km 483.839km
周期 94.267分钟 94.268分钟
每日圈数 15.275728 15.275617
详细信息
固有亮度:
5
最大亮度:
0.3
卫星平台:
Starlink v2.0 mini
覆盖范围:
全球
运营商:
太空探索技术公司
运营商所在国:
美国
制造商(研发单位):
太空探索技术公司
制造商所在国:
美国
使用方式:
暂无
卫星简介
星链(Starlink)计划是由太空探索技术公司(SpaceX)提出的一个巨型低轨卫星互联网星座项目,计划在2019年至2024年间在太空搭建由约1.2万颗卫星组成的“星链”网络,其中1584颗将部署在地球上空550千米处的近地轨道,并从2020年开始工作。该卫星仍在工作。
2D轨道图
3D轨道图
轨道高度分析图
轨道倾角分析图
轨道综合分析图
查看轨道综合分析图
与全量物体交会距离演化趋势
与全量物体交会风险概率演化趋势